{"data":{"norad_id":63111,"epoch":"2026-05-25T03:01:00.967296Z","epoch_age_seconds":60105,"freshness":"FRESH","line1":"1 63111U 25039H   26145.12570564  .00422683  00000+0  31601-2 0  9996","line2":"2 63111  42.9993 136.3983 0001746 203.0798 156.9991 15.70633459 71630","mean_motion":15.70633459,"eccentricity":0.0001746,"inclination_deg":42.9993,"raan_deg":136.3983,"arg_perigee_deg":203.0798,"mean_anomaly_deg":156.9991,"bstar":0.0031601,"rev_number":7163,"period_min":91.682753334239,"perigee_km":355.90948925055,"apogee_km":358.26142893327,"semimajor_km":6735.2224590919,"source":"CELESTRAK","updated_at":"2026-05-25T13:38:19.907789Z"}}